| time (UTC) | temp C | wind direction | speed KPH | gust KPH | rain 1hr cm | rain 24hr cm | rain mn cm | humidity % | barometer mb |
| 20260502220133 | 13 | 336 | 8.0 | 20.9 | 0.00 | 0.03 | 0.03 | 33 | 1014.7 |
| 20260502214557 | 13 | 288 | 11.3 | 25.7 | 0.00 | 0.03 | 0.03 | 32 | 1014.7 |
| 20260502213103 | 13 | 249 | 9.7 | 20.9 | 0.00 | 0.03 | 0.03 | 33 | 1014.8 |
| 20260502211559 | 13 | 283 | 8.0 | 14.5 | 0.00 | 0.03 | 0.03 | 35 | 1014.9 |
| 20260502204559 | 12 | 236 | 9.7 | 20.9 | 0.00 | 0.03 | 0.03 | 33 | 1015.3 |
| 20260502203112 | 13 | 277 | 1.6 | 8.0 | 0.00 | 0.03 | 0.03 | 35 | 1015.4 |
| 20260502201554 | 13 | 218 | 9.7 | 16.1 | 0.00 | 0.03 | 0.03 | 32 | 1015.5 |
| 20260502200055 | 12 | 295 | 8.0 | 22.5 | 0.00 | 0.03 | 0.03 | 35 | 1015.9 |
| 20260502194556 | 12 | 273 | 3.2 | 11.3 | 0.00 | 0.03 | 0.03 | 35 | 1016.1 |
| 20260502193054 | 12 | 276 | 4.8 | 16.1 | 0.00 | 0.03 | 0.03 | 34 | 1016.2 |
| 20260502191616 | 12 | 101 | 6.4 | 16.1 | 0.00 | 0.03 | 0.03 | 34 | 1016.4 |
| 20260502190106 | 12 | 256 | 1.6 | 9.7 | 0.00 | 0.03 | 0.03 | 34 | 1016.6 |
| 20260502184554 | 12 | 117 | 1.6 | 12.9 | 0.00 | 0.03 | 0.03 | 36 | 1016.8 |
| 20260502183059 | 12 | 257 | 6.4 | 16.1 | 0.00 | 0.03 | 0.03 | 36 | 1017.1 |
| 20260502181557 | 12 | 211 | 4.8 | 20.9 | 0.00 | 0.03 | 0.03 | 36 | 1017.1 |
| 20260502163107 | 11 | 301 | 4.8 | 9.7 | 0.00 | 0.03 | 0.03 | 40 | 1018.1 |
| 20260502161558 | 11 | 245 | 1.6 | 11.3 | 0.00 | 0.03 | 0.03 | 43 | 1018.2 |
| 20260502160104 | 10 | 305 | 1.6 | 14.5 | 0.00 | 0.03 | 0.03 | 42 | 1018.3 |
| 20260502151555 | 8 | 293 | 4.8 | 14.5 | 0.00 | 0.03 | 0.03 | 54 | 1018.5 |
| 20260502130105 | 3 | 271 | 1.6 | 4.8 | 0.00 | 0.00 | 0.00 | 86 | 1019.0 |
| 20260502123104 | 2 | 269 | 0.0 | 3.2 | 0.00 | 0.00 | 0.00 | 88 | 1018.9 |
| 20260502121558 | 1 | 0 | 0.0 | 1.6 | 0.00 | 0.00 | 0.00 | 90 | 1018.9 |
| 20260502114557 | 0 | 274 | 1.6 | 3.2 | 0.00 | 0.00 | 0.00 | 92 | 1018.5 |
| 20260502113057 | 0 | 263 | 0.0 | 1.6 | 0.00 | 0.00 | 0.00 | 93 | 1018.6 |
| 20260502111555 | -1 | 0 | 0.0 | 1.6 | 0.00 | 0.00 | 0.00 | 94 | 1018.5 |
| 20260502110055 | -2 | 0 | 0.0 | 0.0 | 0.00 | 0.00 | 0.00 | 94 | 1018.5 |
| 20260502104555 | -2 | 0 | 0.0 | 0.0 | 0.00 | 0.00 | 0.00 | 94 | 1018.5 |
| 20260502103051 | -2 | 0 | 0.0 | 0.0 | 0.00 | 0.00 | 0.00 | 94 | 1018.4 |
| 20260502101554 | -2 | 0 | 0.0 | 0.0 | 0.00 | 0.00 | 0.00 | 94 | 1018.4 |
| 20260502070100 | 0 | 0 | 0.0 | 0.0 | 0.00 | 0.00 | 0.00 | 94 | 1018.3 |
| 20260502064556 | 0 | 0 | 0.0 | 0.0 | 0.00 | 0.00 | 0.00 | 94 | 1018.3 |
| 20260502063057 | 0 | 0 | 0.0 | 0.0 | 0.00 | 0.00 | 0.00 | 93 | 1018.4 |
| 20260502061554 | 0 | 0 | 0.0 | 0.0 | 0.00 | 0.00 | 0.00 | 94 | 1018.5 |
| 20260502060100 | 0 | 0 | 0.0 | 1.6 | 0.00 | 0.00 | 0.00 | 93 | 1018.6 |
| 20260502054557 | 0 | 0 | 0.0 | 1.6 | 0.00 | 0.00 | 0.00 | 93 | 1018.4 |
| 20260502053053 | 0 | 281 | 1.6 | 1.6 | 0.00 | 0.00 | 0.00 | 93 | 1018.4 |
| 20260502051601 | 0 | 0 | 0.0 | 1.6 | 0.00 | 0.00 | 0.00 | 93 | 1018.5 |
| 20260502050055 | 0 | 0 | 0.0 | 0.0 | 0.00 | 0.00 | 0.00 | 93 | 1018.6 |
| 20260502044555 | 0 | 0 | 0.0 | 0.0 | 0.00 | 0.03 | 0.00 | 92 | 1018.6 |
| 20260502043059 | 0 | 271 | 0.0 | 1.6 | 0.00 | 0.03 | 0.00 | 92 | 1018.6 |
| 20260502041555 | 0 | 0 | 0.0 | 1.6 | 0.00 | 0.03 | 0.00 | 92 | 1018.4 |
| 20260502040057 | 0 | 271 | 0.0 | 1.6 | 0.00 | 0.03 | 0.00 | 90 | 1018.4 |
| 20260502034555 | 0 | 0 | 0.0 | 1.6 | 0.00 | 0.05 | 0.00 | 90 | 1018.5 |
| 20260502033052 | 0 | 0 | 0.0 | 0.0 | 0.00 | 0.05 | 0.00 | 89 | 1018.4 |
| 20260502031552 | 1 | 0 | 0.0 | 0.0 | 0.00 | 0.05 | 0.00 | 87 | 1018.3 |
| 20260502030054 | 1 | 0 | 0.0 | 1.6 | 0.00 | 0.05 | 0.00 | 86 | 1018.2 |
| 20260502024549 | 2 | 0 | 0.0 | 1.6 | 0.00 | 0.05 | 0.00 | 76 | 1018.2 |
| 20260502023052 | 3 | 0 | 0.0 | 3.2 | 0.00 | 0.05 | 0.00 | 76 | 1018.2 |
| 20260502021552 | 3 | 0 | 0.0 | 6.4 | 0.00 | 0.05 | 0.00 | 76 | 1018.2 |
| 20260502020054 | 3 | 0 | 0.0 | 4.8 | 0.00 | 0.05 | 0.00 | 76 | 1018.0 |
| 20260502014559 | 3 | 93 | 0.0 | 3.2 | 0.00 | 0.05 | 0.00 | 76 | 1017.8 |
| 20260502013054 | 3 | 337 | 0.0 | 1.6 | 0.00 | 0.05 | 0.00 | 74 | 1017.7 |
| 20260502011553 | 4 | 0 | 0.0 | 4.8 | 0.00 | 0.05 | 0.00 | 73 | 1017.6 |
| 20260502010059 | 4 | 133 | 1.6 | 6.4 | 0.00 | 0.05 | 0.00 | 69 | 1017.4 |
| 20260502004603 | 5 | 162 | 4.8 | 9.7 | 0.00 | 0.08 | 0.00 | 70 | 1017.4 |
| 20260502003053 | 5 | 70 | 8.0 | 11.3 | 0.00 | 0.08 | 0.00 | 71 | 1017.4 |
| 20260502001556 | 5 | 93 | 4.8 | 9.7 | 0.00 | 0.08 | 0.00 | 71 | 1017.3 |
| 20260502000108 | 5 | 89 | 4.8 | 12.9 | 0.00 | 0.08 | 0.00 | 70 | 1017.3 |
| 20260501234555 | 5 | 77 | 8.0 | 12.9 | 0.00 | 0.10 | 0.00 | 71 | 1017.2 |
| 20260501233103 | 5 | 57 | 8.0 | 16.1 | 0.00 | 0.10 | 0.00 | 72 | 1017.2 |
| 20260501231600 | 5 | 65 | 9.7 | 17.7 | 0.00 | 0.10 | 0.00 | 74 | 1017.2 |
| 20260501230055 | 5 | 349 | 9.7 | 20.9 | 0.00 | 0.10 | 0.00 | 73 | 1017.3 |
| 20260501224553 | 5 | 43 | 14.5 | 20.9 | 0.00 | 0.10 | 0.00 | 77 | 1017.4 |
| 20260501223100 | 5 | 49 | 16.1 | 24.1 | 0.00 | 0.10 | 0.00 | 78 | 1017.5 |
| 20260501221600 | 5 | 70 | 9.7 | 16.1 | 0.00 | 0.10 | 0.00 | 80 | 1017.4 |